TimePDT,TemperatureF,Dew PointF,Humidity,Sea Level PressureIn,VisibilityMPH,Wind Direction,Wind SpeedMPH,Gust SpeedMPH,PrecipitationIn,Events,Conditions,WindDirDegrees,DateUTC
12:53 AM,54.0,48.0,80,30.21,10.0,Calm,Calm,-,0.00,,Overcast,0,2012-10-25 07:53:00
1:53 AM,55.0,48.0,77,30.22,10.0,WSW,4.6,-,N/A,,Overcast,250,2012-10-25 08:53:00
2:53 AM,54.0,48.0,80,30.23,9.0,WNW,4.6,-,N/A,,Overcast,290,2012-10-25 09:53:00
3:53 AM,53.1,50.0,89,30.24,5.0,Calm,Calm,-,0.01,,Overcast,0,2012-10-25 10:53:00
4:53 AM,52.0,51.1,97,30.23,7.0,Calm,Calm,-,N/A,,Overcast,0,2012-10-25 11:53:00
5:03 AM,51.8,50.0,94,30.23,7.0,Calm,Calm,-,0.01,,Overcast,0,2012-10-25 12:03:00
5:41 AM,51.8,51.8,100,30.23,8.0,Calm,Calm,-,0.01,,Overcast,0,2012-10-25 12:41:00
5:49 AM,51.8,51.8,100,30.24,8.0,Calm,Calm,-,0.01,,Overcast,0,2012-10-25 12:49:00
5:53 AM,52.0,51.1,97,30.24,8.0,Calm,Calm,-,0.01,,Overcast,0,2012-10-25 12:53:00
6:01 AM,51.8,51.8,100,30.25,9.0,Calm,Calm,-,N/A,,Overcast,0,2012-10-25 13:01:00
6:53 AM,52.0,51.1,97,30.25,10.0,Calm,Calm,-,N/A,,Overcast,0,2012-10-25 13:53:00
7:53 AM,52.0,51.1,97,30.26,10.0,Calm,Calm,-,N/A,,Overcast,0,2012-10-25 14:53:00
8:53 AM,53.1,51.1,93,30.28,10.0,NNW,5.8,-,N/A,,Overcast,340,2012-10-25 15:53:00
9:53 AM,54.0,48.0,80,30.30,10.0,North,4.6,-,N/A,,Overcast,10,2012-10-25 16:53:00
10:16 AM,55.4,48.2,77,30.29,10.0,Variable,3.5,-,N/A,,Overcast,0,2012-10-25 17:16:00
11:53 AM,63.0,46.9,56,30.29,10.0,North,10.4,16.1,N/A,,Clear,350,2012-10-25 18:53:00
12:53 PM,64.9,46.0,50,30.27,10.0,NNE,8.1,-,N/A,,Clear,20,2012-10-25 19:53:00
1:53 PM,66.0,45.0,47,30.25,10.0,NNW,12.7,18.4,N/A,,Clear,340,2012-10-25 20:53:00
2:53 PM,66.9,44.1,44,30.24,10.0,North,6.9,19.6,N/A,,Clear,10,2012-10-25 21:53:00
3:53 PM,66.9,44.1,44,30.24,10.0,North,12.7,18.4,N/A,,Clear,350,2012-10-25 22:53:00
4:53 PM,66.0,42.1,42,30.23,10.0,North,5.8,-,N/A,,Clear,10,2012-10-25 23:53:00
5:53 PM,63.0,41.0,45,30.22,10.0,North,5.8,-,N/A,,Clear,360,2012-10-26 00:53:00
6:53 PM,59.0,41.0,51,30.23,10.0,NNW,6.9,-,N/A,,Clear,330,2012-10-26 01:53:00
7:53 PM,57.0,41.0,55,30.24,10.0,NNW,9.2,-,N/A,,Clear,330,2012-10-26 02:53:00
8:53 PM,59.0,37.9,46,30.23,10.0,NNW,8.1,-,N/A,,Clear,340,2012-10-26 03:53:00
10:53 PM,59.0,34.0,39,30.25,10.0,North,10.4,-,N/A,,Clear,350,2012-10-26 05:53:00